N2GWK Weather Reports


time (UTC)temp
C
wind
direction
speed
KPH
gust
KPH
rain 1hr
cm
rain 24hr
cm
rain mn
cm
humidity
%
barometer
mb
20260906112520 21 0.0 0.0 0.00 0.28 0.00 99 1010.6
20260906111523 20 0.0 0.0 0.00 0.28 0.00 99 1010.5
20260906110526 20 0.0 0.0 0.00 0.28 0.00 99 1010.4
20260906105523 20 0.0 0.0 0.00 0.28 0.00 99 1010.3
20260906104520 20 0.0 0.0 0.00 0.28 0.00 99 1010.3
20260906103538 20 0.0 0.0 0.00 0.28 0.00 99 1010.2
20260906102521 21 0.0 0.0 0.00 0.28 0.00 99 1010.2
20260906101525 21 0.0 0.0 0.00 0.28 0.00 99 1010.1
20260906100527 21 0.0 0.0 0.00 0.28 0.00 99 1010.0
20260906095553 21 0.0 0.0 0.00 0.28 0.00 99 1009.9
20260906094528 21 0.0 0.0 0.00 0.28 0.00 99 1010.0
20260906093527 21 0.0 0.0 0.00 0.28 0.00 99 1009.6
20260906092551 21 0.0 0.0 0.00 0.28 0.00 99 1009.6
20260906091533 21 0.0 0.0 0.00 0.28 0.00 99 1009.6
20260906090531 21 0.0 0.0 0.00 0.28 0.00 99 1009.6
20260906085516 21 0.0 0.0 0.00 0.28 0.00 98 1009.4
20260906084519 21 0.0 0.0 0.00 0.28 0.00 98 1009.6
20260906083523 21 0.0 0.0 0.00 0.28 0.00 97 1009.3
20260906082528 21 0.0 0.0 0.00 0.28 0.00 97 1009.3
20260906081525 21 0.0 0.0 0.00 0.28 0.00 97 1009.3
20260906080522 21 0.0 0.0 0.00 0.28 0.00 97 1009.3
20260906075605 21 0.0 0.0 0.00 0.28 0.00 97 1009.5
20260906074528 21 0.0 0.0 0.00 0.28 0.00 96 1009.6
20260906073532 21 0.0 0.0 0.00 0.28 0.00 96 1009.7
20260906072517 21 0.0 0.0 0.00 0.28 0.00 95 1009.7
20260906071520 22 0.0 0.0 0.00 0.28 0.00 95 1009.7
20260906070523 22 0.0 0.0 0.00 0.28 0.00 95 1009.8
20260906065521 22 0.0 0.0 0.00 0.28 0.00 95 1010.0
20260906064519 22 113 0.0 3.2 0.00 0.28 0.00 95 1010.1
20260906063515 22 0.0 0.0 0.00 0.28 0.00 95 1009.9
20260906062519 22 0.0 0.0 0.00 0.28 0.00 95 1010.0
20260906061517 22 75 1.6 3.2 0.00 0.28 0.00 94 1010.0
20260906060520 22 0.0 0.0 0.00 0.28 0.00 94 1010.0
20260906055523 22 225 0.0 1.6 0.00 0.28 0.00 94 1010.1
20260906054522 22 90 1.6 3.2 0.00 0.28 0.00 94 1010.0
20260906053526 22 0.0 0.0 0.00 0.28 0.00 94 1010.1
20260906052609 22 146 3.2 3.2 0.00 0.28 0.00 94 1010.0
20260906051533 22 0.0 0.0 0.00 0.28 0.00 93 1010.0
20260906050537 22 0.0 0.0 0.00 0.28 0.00 92 1010.2
20260906045520 23 0.0 0.0 0.00 0.28 0.00 92 1010.1
20260906044545 23 0.0 0.0 0.00 0.28 0.00 92 1009.9
20260906043529 23 133 1.6 3.2 0.00 0.28 0.00 92 1009.6
20260906042527 23 0.0 0.0 0.00 0.28 0.00 92 1009.5
20260906041526 23 0.0 0.0 0.00 0.28 0.00 90 1009.7
20260906040529 23 0.0 0.0 0.00 0.28 0.00 89 1009.8
20260906035533 23 0.0 0.0 0.00 0.28 0.28 89 1009.9
20260906034519 23 0.0 0.0 0.00 0.28 0.28 88 1009.5
20260906033522 23 0.0 0.0 0.00 0.28 0.28 89 1009.6
20260906032525 23 0.0 0.0 0.00 0.28 0.28 89 1009.6
20260906031529 23 0.0 0.0 0.00 0.28 0.28 89 1009.6
20260906030527 -17 0.0 0.0 0.00 0.28 0.28 1009.6
20260906025522 -17 0.0 0.0 0.00 0.28 0.28 1009.6
20260906024529 -17 0.0 0.0 0.00 0.28 0.28 1009.5
20260906023517 23 0.0 0.0 0.00 0.28 0.28 94 1009.5
20260906022520 23 0.0 0.0 0.00 0.28 0.28 93 1009.6
20260906021523 23 0.0 0.0 0.00 0.28 0.28 94 1009.4
20260906020527 23 0.0 0.0 0.00 0.28 0.28 93 1009.2
20260906015546 23 0.0 0.0 0.00 0.28 0.28 92 1009.0
20260906014528 23 0.0 0.0 0.00 0.28 0.28 92 1008.7
20260906013530 23 0.0 0.0 0.00 0.28 0.28 90 1008.7
20260906012516 23 0.0 0.0 0.00 0.28 0.28 92 1008.5
20260906011612 23 0.0 0.0 0.00 0.28 0.28 89 1008.5
20260906010518 23 0.0 0.0 0.03 0.28 0.28 89 1008.6
20260906005521 23 0.0 0.0 0.03 0.28 0.28 87 1008.5
20260906004525 23 0.0 0.0 0.05 0.28 0.28 87 1008.2
20260906003527 24 120 3.2 4.8 0.08 0.28 0.28 85 1008.7
20260906002532 24 113 1.6 4.8 0.10 0.28 0.28 84 1009.0
20260906001516 25 106 3.2 4.8 0.15 0.28 0.28 83 1009.3
20260906000519 26 256 6.4 11.3 0.13 0.25 0.25 79 1009.6
20260905235519 26 271 6.4 11.3 0.13 0.25 0.25 83 1009.5
20260905234522 27 101 1.6 3.2 0.10 0.23 0.23 81 1009.5
20260905233524 27 68 3.2 4.8 0.08 0.20 0.20 76 1009.3
20260905232547 30 110 4.8 6.4 0.05 0.18 0.18 70 1009.0
20260905231525 35 194 1.6 6.4 0.00 0.13 0.13 55 1008.9
20260905230516 36 90 1.6 3.2 0.00 0.13 0.13 49 1008.7
20260905225519 36 0.0 0.0 0.00 0.13 0.13 47 1008.5
20260905224517 35 142 1.6 3.2 0.00 0.13 0.13 49 1008.8
20260905223601 36 217 4.8 6.4 0.00 0.13 0.13 47 1008.4
20260905222518 36 253 4.8 8.0 0.00 0.13 0.13 47 1008.7
20260905221521 36 158 4.8 8.0 0.00 0.13 0.13 46 1008.7
20260905220545 36 244 3.2 4.8 0.00 0.13 0.13 46 1008.8
20260905215527 37 214 3.2 6.4 0.00 0.13 0.13 45 1009.0
20260905214532 37 165 3.2 3.2 0.00 0.13 0.13 45 1008.9
20260905213517 36 258 4.8 9.7 0.00 0.13 0.13 47 1008.7
20260905212533 36 253 4.8 9.7 0.00 0.13 0.13 48 1008.8
20260905211518 36 178 3.2 4.8 0.00 0.13 0.13 47 1008.8
20260905210521 36 150 3.2 9.7 0.00 0.13 0.13 46 1008.8
20260905205524 36 143 6.4 11.3 0.00 0.13 0.13 46 1008.9
20260905204527 36 194 3.2 6.4 0.00 0.13 0.13 46 1009.0
20260905203527 36 202 4.8 11.3 0.00 0.13 0.13 46 1009.2
20260905202524 37 263 3.2 8.0 0.00 0.13 0.13 46 1009.2
20260905201526 36 222 4.8 6.4 0.00 0.13 0.13 47 1009.3
20260905200525 36 233 4.8 8.0 0.00 0.13 0.13 47 1009.4
20260905195528 36 248 4.8 11.3 0.00 0.13 0.13 47 1009.6
20260905194530 36 222 4.8 9.7 0.00 0.13 0.13 46 1009.9
20260905193516 36 259 8.0 9.7 0.00 0.13 0.13 46 1009.9
20260905192520 36 208 6.4 9.7 0.00 0.13 0.13 47 1010.0
20260905191522 36 237 4.8 6.4 0.00 0.13 0.13 47 1010.0
20260905190559 35 249 3.2 6.4 0.00 0.13 0.13 46 1010.1
20260905185517 36 257 4.8 11.3 0.00 0.13 0.13 47 1010.4
20260905184533 36 246 3.2 9.7 0.00 0.13 0.13 45 1010.5
20260905183545 36 186 3.2 4.8 0.00 0.13 0.13 45 1010.6
20260905182530 36 179 3.2 4.8 0.00 0.13 0.13 44 1010.7
20260905181526 36 106 3.2 4.8 0.00 0.13 0.13 44 1010.8
20260905180519 35 230 3.2 8.0 0.00 0.13 0.13 47 1010.9
20260905175523 35 232 1.6 6.4 0.00 0.13 0.13 46 1011.1
20260905174522 35 205 1.6 3.2 0.00 0.13 0.13 49 1011.1
20260905173525 34 188 1.6 4.8 0.00 0.13 0.13 52 1011.0
20260905172528 34 100 3.2 3.2 0.00 0.13 0.13 48 1011.4
20260905171531 33 247 1.6 3.2 0.00 0.13 0.13 51 1011.5
20260905170516 32 113 3.2 6.4 0.00 0.13 0.13 54 1011.5
20260905165519 32 190 3.2 6.4 0.00 0.13 0.13 57 1011.9
20260905164524 32 113 3.2 4.8 0.00 0.13 0.13 55 1012.0
20260905163525 32 82 3.2 4.8 0.00 0.13 0.13 54 1011.8
20260905162530 31 109 3.2 4.8 0.00 0.13 0.13 59 1012.0
20260905161516 30 203 3.2 4.8 0.00 0.13 0.13 63 1012.0
20260905160527 30 98 3.2 6.4 0.00 0.13 0.13 61 1012.0
20260905155530 30 126 3.2 4.8 0.00 0.13 0.13 64 1012.2
20260905154548 29 167 1.6 3.2 0.00 0.13 0.13 68 1012.3
20260905153531 28 105 3.2 4.8 0.00 0.13 0.13 68 1012.6
20260905152516 28 116 1.6 4.8 0.00 0.13 0.13 73 1012.7
20260905151539 27 99 3.2 6.4 0.00 0.13 0.13 73 1012.6
20260905150523 26 104 3.2 6.4 0.00 0.13 0.13 77 1012.6
20260905145521 25 105 3.2 6.4 0.13 0.13 0.13 82 1012.8
20260905144517 25 113 0.0 3.2 0.13 0.13 0.13 86 1012.8
20260905143532 23 106 1.6 4.8 0.13 0.13 0.13 90 1012.8
20260905142517 23 0.0 0.0 0.13 0.13 0.13 92 1012.9
20260905141613 23 0.0 0.0 0.13 0.13 0.13 90 1012.9
20260905140531 23 103 3.2 4.8 0.13 0.13 0.13 87 1013.0
20260905135516 24 117 4.8 8.0 0.00 0.00 0.00 83 1013.6
20260905134541 25 87 4.8 6.4 0.00 0.00 0.00 80 1013.4
20260905133525 25 167 3.2 6.4 0.00 0.00 0.00 80 1013.1
20260905132528 25 88 3.2 4.8 0.00 0.00 0.00 81 1013.0
20260905131530 24 101 3.2 6.4 0.00 0.00 0.00 84 1013.0
20260905130517 23 72 4.8 6.4 0.00 0.00 0.00 89 1013.2
20260905125532 23 132 1.6 3.2 0.00 0.00 0.00 89 1012.4
20260905124517 23 122 1.6 3.2 0.00 0.00 0.00 90 1012.7
20260905123521 23 0.0 0.0 0.00 0.00 0.00 91 1012.8
20260905122540 23 111 0.0 3.2 0.00 0.00 0.00 91 1012.6
20260905121517 23 0.0 0.0 0.00 0.00 0.00 92 1012.4
20260905120535 22 163 1.6 3.2 0.00 0.00 0.00 95 1012.3
20260905115526 22 144 0.0 3.2 0.00 0.00 0.00 97 1012.3
20260905114530 22 99 1.6 3.2 0.00 0.00 0.00 96 1012.0
20260905113527 22 90 0.0 1.6 0.00 0.00 0.00 97 1011.8